星链-31323 (STARLINK-31323 )

导读

STARLINK-31323是美国太空探索技术公司SpaceX星链星座的成员卫星,于北京时间2024年1月29日成功发射入轨。该卫星运行在近地轨道,轨道倾角53.16°,轨道高度约475公里,每日绕地球运行15.3圈。作为星链二代星座部署的一部分,它主要为全球提供高速互联网服务,支撑星链网络覆盖扩展,服务于宽带接入、移动场景通信等多元应用需求。

Basic Information
目录编号:
58882
目录名称:
STARLINK-31323
国际标识:
2024-020G
轨道中心:
EARTH
卫星名称:
星链-31323
卫星全名:
星链-31323 (STARLINK-31323 )
卫星状态:
在轨 (已飞行871 天)
发射日期:
2024-01-29 UTC
国别 :
美国 (US)
星等 :
--
Orbit Information
数据来源 国际轨道数据 AOE轨道数据
星历时间 2026-06-17T17:52:51+0800
21小时前
查看轨道信息
2026-06-15T04:00:00+0800
3天前
查看轨道信息
半长轴 6840.916km 6840.829km
偏心率 0.0001069 0.0001301
轨道倾角 53.160° 53.159°
近地点辐角 46.197° 122.048°
升交点赤经 218.188° 230.244°
平近点角 313.912° 27.803°
近地点 462.047km 461.802km
远地点 463.511km 463.582km
周期 93.849分钟 93.848分钟
每日圈数 15.343746 15.34404
Detailed Information
固有亮度:
5
最大亮度:
0.3
卫星平台:
Starlink v2.0 mini
覆盖范围:
全球
运营商:
太空探索技术公司
运营商所在国:
美国
制造商(研发单位):
太空探索技术公司
制造商所在国:
美国
使用方式:
暂无
Satellite Introduction
星链(Starlink)计划是由太空探索技术公司(SpaceX)提出的一个巨型低轨卫星互联网星座项目,计划在2019年至2024年间在太空搭建由约1.2万颗卫星组成的“星链”网络,其中1584颗将部署在地球上空550千米处的近地轨道,并从2020年开始工作。该卫星仍在工作。
2D Orbit Map
3D Orbit Map
Orbit Altitude Analysis Chart
Orbit Inclination Analysis Chart
Orbit Comprehensive Analysis Chart
View Comprehensive Chart